Find Kosmos-1604

NORAD ID: 15350 Int'l Des: 1984-107 Owner: PVO Country: SU operational
MEOELLIPTICALHEO_ELLIPTICALSEMI_SYNC

Live Position

Loading 3D Globe...

About Kosmos-1604

Description loading...

Upcoming Passes

Passes for default location (London). Set your location on the main map for personalized predictions.

Altitude History

Loading altitude history...

Two-Line Element Set

1 15350U 84107A 26108.94123094 .00000300 00000-0 00000+0 0 9995
2 15350 72.3415 359.1365 5440782 327.5144 8.5386 2.00686193304198
Epoch: Apr 18, 2026 • Age: 51 hours

Current Status

Altitude 27943.4 km
Velocity 2.87 km/s
Sub-Earth Point 60.29°N, 84.11°W
Launch Date Oct 4, 1984
Age 41.5 years
Type other

Technical Details

Classification Payload
Mass 1250.00 kg
Dry Mass 1150.00 kg
Total Mass 1250.00 kg
Length 4.00 m
Diameter 2.00 m
Span 5.00 m
Shape Cyl + 2 Pan
Manufacturer NPOL/KOMET
Bus Type Oko
Phase Status In Orbit
Owner/State PVO/SU

Most Searched